| time (UTC) | temp F | wind direction | speed knots | gust knots | rain 1hr in | rain 24hr in | rain mn in | humidity % | barometer mb |
| 20260507104548 | 72 | 178 | 2.6 | 8.7 | 0.00 | 0.00 | 0.00 | 51 | 1012.7 |
| 20260507103048 | 72 | 98 | 0.9 | 7.8 | 0.00 | 0.00 | 0.00 | 47 | 1012.9 |
| 20260507101550 | 73 | 13 | 0.0 | 6.1 | 0.00 | 0.00 | 0.00 | 53 | 1013.1 |
| 20260507100044 | 71 | 80 | 2.6 | 7.0 | 0.00 | 0.00 | 0.00 | 52 | 1013.0 |
| 20260507094550 | 72 | 85 | 1.7 | 6.1 | 0.00 | 0.00 | 0.00 | 52 | 1013.0 |
| 20260507093039 | 70 | 115 | 1.7 | 5.2 | 0.00 | 0.00 | 0.00 | 53 | 1013.1 |
| 20260507091537 | 69 | 109 | 1.7 | 5.2 | 0.00 | 0.00 | 0.00 | 56 | 1013.1 |
| 20260507090038 | 69 | 360 | 0.9 | 5.2 | 0.00 | 0.00 | 0.00 | 58 | 1013.2 |
| 20260507084534 | 69 | 323 | 1.7 | 7.8 | 0.00 | 0.00 | 0.00 | 60 | 1013.1 |
| 20260507083032 | 68 | 130 | 1.7 | 4.3 | 0.00 | 0.00 | 0.00 | 67 | 1013.0 |
| 20260507081535 | 67 | 129 | 1.7 | 4.3 | 0.00 | 0.00 | 0.00 | 64 | 1013.1 |
| 20260507080024 | 65 | 138 | 0.9 | 3.5 | 0.00 | 0.00 | 0.00 | 69 | 1013.1 |
| 20260507074529 | 64 | 115 | 1.7 | 3.5 | 0.00 | 0.00 | 0.00 | 67 | 1013.1 |
| 20260507073017 | 62 | 54 | 0.0 | 2.6 | 0.00 | 0.00 | 0.00 | 74 | 1013.3 |
| 20260507071513 | 60 | 284 | 1.7 | 3.5 | 0.00 | 0.00 | 0.00 | 75 | 1013.2 |
| 20260507070012 | 59 | 113 | 0.9 | 5.2 | 0.00 | 0.00 | 0.00 | 82 | 1013.1 |
| 20260507064505 | 56 | 132 | 0.0 | 2.6 | 0.00 | 0.00 | 0.00 | 87 | 1013.1 |
| 20260507063002 | 54 | 360 | 0.0 | 3.5 | 0.00 | 0.00 | 0.00 | 91 | 1013.2 |
| 20260507061502 | 51 | 18 | 0.0 | 0.0 | 0.00 | 0.00 | 0.00 | 95 | 1013.1 |
| 20260507060100 | 49 | 17 | 0.0 | 0.0 | 0.00 | 0.00 | 0.00 | 95 | 1013.0 |
| 20260507054559 | 48 | 17 | 0.0 | 0.0 | 0.00 | 0.00 | 0.00 | 94 | 1013.1 |
| 20260507053058 | 47 | 17 | 0.0 | 0.0 | 0.00 | 0.00 | 0.00 | 93 | 1012.9 |
| 20260507051557 | 47 | 17 | 0.0 | 0.0 | 0.00 | 0.00 | 0.00 | 93 | 1012.8 |
| 20260507050059 | 46 | 16 | 0.0 | 0.0 | 0.00 | 0.00 | 0.00 | 93 | 1012.7 |
| 20260507044555 | 47 | 16 | 0.0 | 0.0 | 0.00 | 0.00 | 0.00 | 93 | 1012.6 |
| 20260507043057 | 47 | 30 | 0.0 | 0.0 | 0.00 | 0.00 | 0.00 | 92 | 1012.6 |
| 20260507041558 | 47 | 30 | 0.0 | 0.0 | 0.00 | 0.00 | 0.00 | 93 | 1012.5 |
| 20260507034605 | 48 | 65 | 0.0 | 0.0 | 0.00 | 0.01 | 0.00 | 91 | 1012.5 |
| 20260507033101 | 49 | 68 | 0.0 | 0.0 | 0.00 | 0.01 | 0.00 | 90 | 1012.6 |
| 20260507031543 | 49 | 68 | 0.0 | 0.0 | 0.00 | 0.01 | 0.00 | 90 | 1012.5 |
| 20260507030040 | 50 | 68 | 0.0 | 0.0 | 0.00 | 0.01 | 0.00 | 90 | 1012.5 |
| 20260507024550 | 50 | 69 | 0.0 | 0.0 | 0.00 | 0.01 | 0.00 | 89 | 1012.6 |
| 20260507023039 | 51 | 69 | 0.0 | 0.0 | 0.00 | 0.01 | 0.00 | 89 | 1012.6 |
| 20260507021534 | 51 | 68 | 0.0 | 0.0 | 0.00 | 0.01 | 0.00 | 90 | 1012.4 |
| 20260507020036 | 51 | 68 | 0.0 | 0.0 | 0.00 | 0.35 | 0.00 | 90 | 1012.6 |
| 20260507014533 | 51 | 69 | 0.0 | 4.3 | 0.00 | 0.35 | 0.00 | 90 | 1012.6 |
| 20260507013036 | 51 | 258 | 0.0 | 2.6 | 0.00 | 0.35 | 0.00 | 89 | 1012.6 |
| 20260507011531 | 51 | 355 | 0.0 | 0.9 | 0.00 | 0.35 | 0.00 | 88 | 1012.6 |
| 20260507010036 | 52 | 355 | 0.0 | 0.9 | 0.00 | 0.50 | 0.00 | 87 | 1012.7 |
| 20260507004526 | 52 | 355 | 0.9 | 3.5 | 0.00 | 0.50 | 0.00 | 88 | 1012.7 |
| 20260507003022 | 53 | 335 | 0.0 | 1.7 | 0.00 | 0.50 | 0.00 | 86 | 1012.8 |
| 20260507001520 | 53 | 355 | 0.0 | 0.0 | 0.00 | 0.50 | 0.00 | 86 | 1013.0 |
| 20260507000020 | 53 | 355 | 0.9 | 2.6 | 0.00 | 0.50 | 0.00 | 85 | 1013.0 |
| 20260506234536 | 54 | 5 | 0.0 | 3.5 | 0.00 | 0.50 | 0.00 | 85 | 1013.1 |
| 20260506233019 | 54 | 346 | 2.6 | 5.2 | 0.00 | 0.50 | 0.00 | 85 | 1013.2 |
| 20260506231517 | 53 | 355 | 1.7 | 4.3 | 0.00 | 0.50 | 0.00 | 85 | 1013.3 |
| 20260506230016 | 53 | 344 | 1.7 | 3.5 | 0.00 | 0.50 | 0.00 | 85 | 1013.3 |
| 20260506224524 | 53 | 5 | 0.9 | 3.5 | 0.00 | 0.50 | 0.00 | 85 | 1013.3 |
| 20260506223012 | 53 | 307 | 0.9 | 4.3 | 0.00 | 0.50 | 0.00 | 84 | 1013.3 |
| 20260506221512 | 54 | 355 | 0.9 | 3.5 | 0.00 | 0.50 | 0.00 | 83 | 1013.2 |
| 20260506220017 | 54 | 334 | 0.0 | 1.7 | 0.00 | 0.53 | 0.50 | 82 | 1012.9 |
| 20260506214506 | 54 | 331 | 0.0 | 2.6 | 0.00 | 0.53 | 0.50 | 82 | 1012.7 |
| 20260506213005 | 54 | 333 | 0.9 | 2.6 | 0.00 | 0.53 | 0.50 | 82 | 1012.7 |
| 20260506211508 | 54 | 323 | 0.9 | 2.6 | 0.00 | 0.53 | 0.50 | 82 | 1012.7 |
| 20260506210005 | 54 | 360 | 0.0 | 1.7 | 0.00 | 0.54 | 0.50 | 82 | 1012.8 |
| 20260506204503 | 55 | 360 | 0.0 | 1.7 | 0.00 | 0.54 | 0.50 | 81 | 1012.8 |
| 20260506203002 | 55 | 5 | 0.0 | 2.6 | 0.00 | 0.54 | 0.50 | 82 | 1012.6 |
| 20260506201601 | 56 | 5 | 0.0 | 0.9 | 0.00 | 0.54 | 0.50 | 81 | 1012.5 |
| 20260506200100 | 56 | 5 | 0.0 | 1.7 | 0.00 | 0.54 | 0.50 | 79 | 1012.1 |
| 20260506194600 | 57 | 5 | 0.0 | 1.7 | 0.00 | 0.54 | 0.50 | 78 | 1011.9 |
| 20260506193059 | 58 | 5 | 0.0 | 1.7 | 0.00 | 0.54 | 0.50 | 75 | 1011.7 |
| 20260506191553 | 59 | 5 | 0.0 | 2.6 | 0.00 | 0.54 | 0.50 | 73 | 1011.4 |
| 20260506190051 | 60 | 205 | 0.0 | 1.7 | 0.00 | 0.54 | 0.50 | 70 | 1011.1 |
| 20260506184548 | 61 | 213 | 0.0 | 2.6 | 0.00 | 0.54 | 0.50 | 69 | 1010.8 |
| 20260506183056 | 61 | 22 | 0.0 | 5.2 | 0.00 | 0.54 | 0.50 | 68 | 1010.6 |
| 20260506181559 | 62 | 293 | 0.0 | 4.3 | 0.00 | 0.54 | 0.50 | 66 | 1010.5 |
| 20260506180048 | 63 | 107 | 0.9 | 2.6 | 0.00 | 0.54 | 0.50 | 65 | 1010.2 |
| 20260506174546 | 63 | 102 | 0.9 | 5.2 | 0.00 | 0.54 | 0.50 | 63 | 1009.9 |
| 20260506173116 | 64 | 78 | 0.9 | 4.3 | 0.00 | 0.54 | 0.50 | 61 | 1009.7 |
| 20260506171551 | 65 | 38 | 0.9 | 5.2 | 0.00 | 0.54 | 0.50 | 59 | 1009.6 |
| 20260506170041 | 66 | 153 | 0.0 | 4.3 | 0.00 | 0.54 | 0.50 | 56 | 1009.4 |
| 20260506164538 | 67 | 118 | 0.9 | 5.2 | 0.00 | 0.54 | 0.50 | 53 | 1009.3 |
| 20260506163036 | 68 | 120 | 0.9 | 7.8 | 0.00 | 0.54 | 0.50 | 51 | 1009.4 |
| 20260506161533 | 68 | 101 | 3.5 | 7.0 | 0.00 | 0.54 | 0.50 | 52 | 1009.3 |
| 20260506160039 | 69 | 137 | 1.7 | 5.2 | 0.00 | 0.54 | 0.50 | 48 | 1009.4 |
| 20260506154534 | 69 | 66 | 1.7 | 7.8 | 0.00 | 0.54 | 0.50 | 48 | 1009.1 |
| 20260506153032 | 70 | 88 | 1.7 | 4.3 | 0.00 | 0.54 | 0.50 | 48 | 1009.2 |
| 20260506151532 | 70 | 130 | 1.7 | 7.0 | 0.00 | 0.54 | 0.50 | 49 | 1009.1 |
| 20260506150031 | 70 | 80 | 1.7 | 8.7 | 0.00 | 0.54 | 0.50 | 46 | 1009.2 |
| 20260506144530 | 71 | 94 | 1.7 | 6.1 | 0.00 | 0.54 | 0.50 | 46 | 1009.2 |
| 20260506143034 | 70 | 117 | 1.7 | 6.1 | 0.00 | 0.54 | 0.50 | 46 | 1009.2 |
| 20260506141529 | 71 | 355 | 1.7 | 8.7 | 0.00 | 0.54 | 0.50 | 45 | 1009.3 |
| 20260506140130 | 71 | 120 | 0.9 | 9.6 | 0.00 | 0.54 | 0.50 | 45 | 1009.4 |
| 20260506134527 | 71 | 102 | 3.5 | 12.2 | 0.00 | 0.54 | 0.50 | 45 | 1009.5 |
| 20260506133027 | 71 | 92 | 0.9 | 7.0 | 0.00 | 0.54 | 0.50 | 49 | 1009.7 |
| 20260506131540 | 70 | 36 | 2.6 | 12.2 | 0.00 | 0.54 | 0.50 | 50 | 1009.7 |
| 20260506130034 | 70 | 58 | 1.7 | 6.1 | 0.00 | 0.54 | 0.50 | 49 | 1009.8 |
| 20260506124520 | 70 | 325 | 1.7 | 11.3 | 0.00 | 0.54 | 0.50 | 49 | 1009.9 |
| 20260506123019 | 70 | 105 | 1.7 | 8.7 | 0.00 | 0.54 | 0.50 | 52 | 1009.9 |
| 20260506121516 | 69 | 155 | 1.7 | 7.0 | 0.00 | 0.54 | 0.50 | 52 | 1010.0 |
| 20260506120018 | 67 | 169 | 1.7 | 6.1 | 0.00 | 0.54 | 0.50 | 56 | 1010.1 |
| 20260506114511 | 66 | 347 | 0.9 | 4.3 | 0.00 | 0.54 | 0.50 | 59 | 1010.2 |
| 20260506113009 | 67 | 345 | 1.7 | 9.6 | 0.00 | 0.54 | 0.50 | 56 | 1010.3 |
| 20260506111508 | 67 | 87 | 1.7 | 8.7 | 0.00 | 0.54 | 0.50 | 55 | 1010.3 |
| 20260506110006 | 67 | 351 | 1.7 | 5.2 | 0.00 | 0.65 | 0.50 | 59 | 1010.3 |